Location: Berbisdorf
(50.7638°N, 12.9442°E)
Time: 22:27:38
(UTC+00:00)

GEOS 3 Rocket - Visible Passes

Search period start: 18 June 2021 00:00
Search period end: 28 June 2021 00:00
Orbit: 777 x 842 km, 115.0° (Epoch: 18 June)

Date Brightness Start Highest point End Pass type
(mag) Time Alt. Az. Time Alt. Az. Time Alt. Az.
18 Jun 5.0 20:08:13 10° E 20:13:00 34° NNE 20:17:45 10° NW visible
18 Jun 3.7 21:46:33 18° SE 21:50:42 82° SW 21:56:05 10° NW visible
18 Jun 5.2 23:27:39 17° SW 23:29:21 19° WSW 23:33:08 10° WNW visible
19 Jun 3.9 21:21:48 11° ESE 21:26:52 69° NE 21:32:11 10° NW visible
19 Jun 4.6 23:02:53 23° SSW 23:05:12 31° WSW 23:09:56 10° WNW visible
20 Jun 4.5 20:57:59 10° ESE 21:03:07 48° NE 21:08:14 10° NW visible
20 Jun 4.0 22:38:08 24° S 22:41:09 49° SW 22:46:21 10° NW visible
21 Jun 5.0 20:34:38 10° E 20:39:28 36° NNE 20:44:17 10° NW visible
21 Jun 3.7 22:13:22 20° SE 22:17:13 77° SW 22:22:35 10° NW visible
21 Jun 5.2 23:54:28 16° SW 23:55:55 18° WSW 23:59:28 10° WNW visible
22 Jun 5.4 20:11:25 10° E 20:15:53 28° NNE 20:20:20 10° NNW visible
22 Jun 3.9 21:48:35 13° SE 21:53:22 73° NE 21:58:41 10° NW visible
22 Jun 4.7 23:29:40 22° SSW 23:31:45 29° WSW 23:36:22 10° WNW visible
23 Jun 4.4 21:24:26 10° ESE 21:29:37 51° NE 21:34:45 10° NW visible
23 Jun 4.1 23:04:53 25° S 23:07:41 46° SW 23:12:50 10° NW visible
24 Jun 4.9 21:01:03 10° E 21:05:57 37° NNE 21:10:48 10° NW visible
24 Jun 3.7 22:40:05 21° SSE 22:43:44 72° SW 22:49:05 10° NW visible
25 Jun 5.3 00:21:10 15° SW 00:22:29 16° WSW 00:25:46 10° WNW visible
25 Jun 5.4 20:37:49 10° E 20:42:21 29° NNE 20:46:51 10° NNW visible
25 Jun 3.8 22:15:15 14° SE 22:19:52 78° NE 22:25:13 10° NW visible
25 Jun 4.8 23:56:21 22° SSW 23:58:18 27° WSW 00:02:47 10° WNW visible
26 Jun 5.7 20:14:39 10° ENE 20:18:49 24° NNE 20:22:57 10° NNW visible
26 Jun 4.3 21:50:53 10° ESE 21:56:06 54° NE 22:01:17 10° NW visible
26 Jun 4.2 23:31:31 25° S 23:34:13 42° WSW 23:39:19 10° NW visible
27 Jun 4.9 21:27:28 10° E 21:32:25 39° NNE 21:37:19 10° NW visible
27 Jun 3.7 23:06:40 21° SSE 23:10:15 67° SW 23:15:35 10° NW visible
